Location: Kosice
(48.7170°N, 21.2500°E)
Time: 23:52:58
(UTC+02:00)

ISS - Pass Details

Date: 28 March 2019
Orbit: 408 x 410 km, 51.6° (Epoch: 24 April)

Event Time Altitude Azimuth Distance (km) Brightness Sun altitude
Rises 19:19:33 0° 270° (W) 2,336 1.4 -13.7°
Reaches altitude 10° 19:21:41 10° 276° (W) 1,475 0.3 -14.0°
Maximum altitude 19:24:55 51° 353° (N) 525 -3.1 -14.5°
Enters shadow 19:26:52 21° 63° (ENE) 983 -2.3 -14.8°
